DW1289 Weather Reports


Display with metric or nautical units.
time (UTC)temp
F
wind
direction
speed
MPH
gust
MPH
rain 1hr
in
rain 24hr
in
rain mn
in
humidity
%
barometer
mb
20260502215016 57 45 2.0 6.0 0.00 0.00 0.00 51 1017.4
20260502214036 57 248 1.0 4.0 0.00 0.00 0.00 51 1017.3
20260502213016 57 45 2.0 4.0 0.00 0.00 0.00 52 1017.4
20260502212016 57 45 1.0 3.0 0.00 0.00 0.00 58 1017.4
20260502211016 56 0.0 3.0 0.00 0.00 0.00 57 1017.5
20260502210016 56 270 1.0 3.0 0.00 0.00 0.00 55 1017.5
20260502205016 56 0.0 2.0 0.00 0.00 0.00 55 1017.5
20260502204016 56 45 1.0 3.0 0.00 0.00 0.00 55 1017.6
20260502203016 56 248 2.0 6.0 0.00 0.00 0.00 56 1017.6
20260502202017 56 270 1.0 5.0 0.00 0.00 0.00 55 1017.6
20260502201016 56 0 1.0 5.0 0.00 0.00 0.00 54 1017.7
20260502200016 56 315 1.0 4.0 0.00 0.00 0.00 54 1017.8
20260502195016 57 338 1.0 3.0 0.00 0.00 0.00 54 1017.8
20260502194016 57 338 1.0 3.0 0.00 0.00 0.00 54 1017.9
20260502193016 58 270 1.0 4.0 0.00 0.00 0.00 52 1017.9
20260502192036 58 248 1.0 4.0 0.00 0.00 0.00 53 1017.9
20260502191016 58 248 2.0 9.0 0.00 0.00 0.00 54 1017.9
20260502190016 59 248 3.0 7.0 0.00 0.00 0.00 55 1018.0
20260502185036 59 225 2.0 5.0 0.00 0.00 0.00 57 1018.2
20260502184016 59 248 3.0 9.0 0.00 0.00 0.00 56 1018.2
20260502183016 58 248 3.0 7.0 0.00 0.00 0.00 59 1018.3
20260502182016 56 248 3.0 7.0 0.00 0.00 0.00 61 1018.4
20260502181036 57 248 2.0 8.0 0.00 0.00 0.00 59 1018.6
20260502164016 54 248 1.0 3.0 0.00 0.00 0.00 63 1019.2
20260502163016 54 270 1.0 3.0 0.00 0.00 0.00 65 1019.2
20260502162016 54 248 1.0 4.0 0.00 0.00 0.00 65 1019.4
20260502161016 54 315 1.0 4.0 0.00 0.00 0.00 65 1019.3
20260502152016 53 0.0 2.0 0.00 0.00 0.00 63 1019.0
20260502151016 52 135 1.0 3.0 0.00 0.00 0.00 65 1019.1
20260502123016 42 0.0 0.0 0.00 0.00 0.00 91 1018.6
20260502122016 42 0.0 0.0 0.00 0.00 0.00 91 1018.7
20260502121016 41 0.0 0.0 0.00 0.00 0.00 91 1018.5
20260502115016 40 0.0 0.0 0.00 0.00 0.00 90 1018.4
20260502114016 40 0.0 0.0 0.00 0.00 0.00 90 1018.3
20260502113036 40 0.0 0.0 0.00 0.00 0.00 89 1018.0
20260502112016 39 0.0 0.0 0.00 0.00 0.00 89 1017.9
20260502111016 39 0.0 0.0 0.00 0.00 0.00 89 1018.0
20260502110016 39 0.0 0.0 0.00 0.00 0.00 87 1017.9
20260502105036 39 0.0 0.0 0.00 0.00 0.00 87 1017.8
20260502104016 39 0.0 0.0 0.00 0.00 0.00 87 1017.7
20260502103036 39 0.0 0.0 0.00 0.00 0.00 87 1017.7
20260502102036 39 0.0 0.0 0.00 0.00 0.00 87 1017.9
20260502101016 39 0.0 0.0 0.00 0.00 0.00 87 1017.6
20260502091016 40 0.0 0.0 0.00 0.00 0.00 86 1017.9
20260502071016 39 0.0 0.0 0.00 0.00 0.00 82 1017.7
20260502070016 40 0.0 0.0 0.00 0.00 0.00 81 1017.5
20260502065016 40 0.0 0.0 0.00 0.00 0.00 81 1017.5
20260502064016 40 0.0 0.0 0.00 0.00 0.00 80 1017.5
20260502063056 40 0.0 0.0 0.00 0.00 0.00 80 1017.7
20260502062016 40 0.0 0.0 0.00 0.00 0.00 80 1017.8
20260502061016 41 0.0 0.0 0.00 0.00 0.00 80 1017.8
20260502060016 41 0.0 0.0 0.00 0.00 0.00 80 1018.1
20260502055016 41 0.0 0.0 0.00 0.00 0.00 79 1017.9
20260502054016 41 0.0 0.0 0.00 0.00 0.00 79 1017.9
20260502053036 42 0.0 0.0 0.00 0.00 0.00 78 1018.0
20260502052016 42 0.0 0.0 0.00 0.00 0.00 78 1018.1
20260502051016 42 0.0 0.0 0.00 0.00 0.00 77 1018.1
20260502050016 43 0.0 0.0 0.00 0.00 0.00 77 1018.2
20260502045016 43 0.0 0.0 0.00 0.00 0.00 77 1018.1
20260502044016 43 0.0 0.0 0.00 0.00 0.00 76 1018.1
20260502043016 44 0.0 0.0 0.00 0.00 0.00 76 1018.2
20260502042016 44 0.0 0.0 0.00 0.00 0.00 74 1018.2
20260502041056 44 0.0 0.0 0.00 0.00 0.00 73 1018.3
20260502040016 45 0.0 0.0 0.00 0.00 0.00 72 1018.3
20260502035017 45 0.0 0.0 0.00 0.00 0.00 71 1018.2
20260502034016 45 0.0 0.0 0.00 0.00 0.00 71 1018.2
20260502033016 46 0.0 0.0 0.00 0.00 0.00 71 1018.1
20260502032016 46 0.0 0.0 0.00 0.00 0.00 69 1017.9
20260502031016 47 0.0 0.0 0.00 0.00 0.00 67 1018.1
20260502030017 47 0.0 0.0 0.00 0.00 0.00 66 1018.2
20260502025016 48 0.0 0.0 0.00 0.00 0.00 64 1018.1
20260502024017 48 0.0 0.0 0.00 0.00 0.00 63 1018.2
20260502023017 49 0.0 0.0 0.00 0.00 0.00 62 1018.2
20260502022016 50 0.0 0.0 0.00 0.00 0.00 60 1017.9
20260502021016 50 0.0 0.0 0.00 0.00 0.00 58 1017.8
20260502020016 51 0.0 0.0 0.00 0.00 0.00 57 1017.7
20260502015016 51 0.0 0.0 0.00 0.00 0.00 57 1017.6
20260502014056 52 0.0 0.0 0.00 0.00 0.00 56 1017.2
20260502013016 52 0.0 0.0 0.00 0.00 0.00 55 1017.0
20260502012036 53 0.0 0.0 0.00 0.00 0.00 54 1016.9
20260502011017 54 0.0 0.0 0.00 0.00 0.00 52 1016.6
20260502010016 54 0.0 2.0 0.00 0.00 0.00 51 1016.5
20260502005016 55 0.0 3.0 0.00 0.00 0.00 49 1016.1
20260502004016 56 315 1.0 4.0 0.00 0.00 0.00 48 1016.2
20260502003016 57 315 1.0 4.0 0.00 0.00 0.00 47 1016.0
20260502002016 57 315 1.0 5.0 0.00 0.00 0.00 46 1015.9
20260502001016 58 315 2.0 8.0 0.00 0.00 0.00 46 1016.0
20260502000036 58 315 2.0 7.0 0.00 0.00 0.00 47 1015.5
20260501235016 58 338 2.0 6.0 0.00 0.00 0.00 49 1015.3
20260501234016 58 338 1.0 7.0 0.00 0.00 0.00 48 1015.2
20260501233016 58 338 2.0 6.0 0.00 0.00 0.00 47 1014.8
20260501232017 59 338 2.0 5.0 0.00 0.00 0.00 46 1015.1
20260501231017 59 338 3.0 8.0 0.00 0.00 0.00 45 1015.3
20260501230017 59 315 3.0 11.0 0.00 0.00 0.00 43 1015.2
20260501225017 60 315 2.0 8.0 0.00 0.00 0.00 42 1015.2
20260501224016 61 0 4.0 11.0 0.00 0.00 0.00 41 1015.2
20260501223016 61 338 3.0 10.0 0.00 0.00 0.00 42 1015.1
20260501222016 61 270 4.0 10.0 0.00 0.00 0.00 42 1015.1
20260501221036 62 248 3.0 9.0 0.00 0.00 0.00 41 1015.1
20260501220016 61 248 4.0 11.0 0.00 0.00 0.00 40 1015.2